Theta_e
306 301 298 301 302 300 300 298 297 300 304 304 302 303 304 309 313 314 316 317 318 319 321 325 327 329 331 332 333 332 330 330 329 326 323 321 321 321 319 317 316 315 314 314
302 299 302 304 302 301 300 298 298 300 303 304 304 303 306 307 310 313 315 316 317 318 321 323 327 329 330 330 331 331 329 328 326 325 325 325 323 319 316 316 314 313 312 312
301 302 303 303 302 300 300 299 299 299 302 304 304 301 304 306 308 310 313 316 317 319 320 322 325 328 329 328 329 328 326 324 324 323 322 320 320 317 316 315 314 312 312 311
302 304 302 303 300 302 298 301 302 300 299 295 303 294 302 305 306 309 311 314 316 319 322 323 322 322 325 325 323 322 322 321 318 316 317 317 316 315 313 312 312 313 312 312
300 301 301 301 300 303 300 303 303 301 301 299 299 296 301 305 304 308 311 314 317 320 318 316 317 319 319 319 319 318 316 315 316 317 317 315 313 311 312 312 310 311 311 311
303 306 305 303 304 304 305 303 302 301 300 293 297 297 297 302 305 308 312 313 315 315 314 313 314 314 314 315 316 316 314 314 314 314 313 312 310 308 308 307 306 305 305 305
301 301 304 306 302 305 304 301 293 291 292 290 297 295 298 304 307 310 311 311 313 313 312 311 310 311 312 313 314 313 312 311 311 310 309 308 308 307 303 302 301 300 300 300
296 294 300 304 303 300 301 300 294 284 287 291 296 292 299 304 308 312 313 312 312 312 312 311 312 312 312 312 312 312 310 308 308 307 306 305 302 300 301 301 300 300 299 300
296 295 302 303 304 304 299 297 301 294 292 292 294 298 303 304 305 309 311 310 310 311 311 312 312 312 311 311 311 310 307 305 304 302 301 301 301 301 301 301 301 300 300 299
302 295 300 302 304 304 302 303 295 297 286 284 291 293 295 300 302 306 309 309 310 311 312 312 310 310 311 311 310 308 305 302 300 300 301 301 301 301 301 301 299 299 299 299
303 300 297 301 300 299 299 298 296 297 294 287 285 292 302 302 305 306 308 310 311 311 311 311 310 310 310 309 306 303 302 299 298 301 301 301 301 301 300 300 299 298 299 299
303 301 296 298 301 303 302 300 298 292 289 293 292 291 302 304 305 308 309 310 312 312 312 311 308 308 308 306 303 302 301 299 301 300 299 299 300 300 299 299 298 299 298 298
303 299 294 294 298 301 299 300 299 297 296 290 291 292 302 304 304 307 308 310 310 311 310 308 307 305 305 303 301 300 300 300 300 299 298 299 299 298 298 298 298 298 297 297
302 300 297 293 295 299 296 298 299 298 292 292 293 294 298 301 303 305 307 309 309 309 308 306 305 304 303 301 299 298 300 302 301 299 298 297 298 298 298 298 297 297 297 297
303 297 297 296 296 296 296 297 297 295 296 292 294 294 297 301 302 305 307 307 307 306 305 305 305 303 301 299 298 300 303 303 300 298 298 298 298 298 298 298 297 297 297 296
300 297 295 293 295 294 293 296 297 298 298 297 297 296 303 304 304 305 305 305 304 304 304 305 305 304 301 300 298 302 302 300 299 297 297 298 297 297 297 297 296 296 295 295
298 295 292 289 291 292 290 294 296 297 299 298 294 300 303 301 302 304 305 305 304 305 305 304 305 304 302 299 302 301 300 299 297 296 296 296 296 295 295 295 295 295 294 295
294 293 292 291 287 285 294 298 297 297 298 300 299 300 301 302 304 305 307 306 305 305 305 306 306 303 303 301 301 301 298 296 296 295 294 295 294 294 294 295 294 294 294 293
297 295 289 290 288 291 293 294 294 294 295 301 300 301 301 302 303 305 306 307 308 307 307 307 306 303 300 299 298 296 295 295 294 293 292 293 293 293 293 293 293 294 293 293
295 295 296 289 289 287 294 296 301 300 292 300 301 302 302 302 299 302 308 307 307 308 308 305 302 299 297 296 294 294 294 293 291 291 292 292 292 293 292 292 293 294 293 291
292 292 291 290 290 292 296 297 302 290 293 302 303 304 303 302 305 306 307 307 308 307 305 302 298 296 295 294 294 292 291 290 292 292 292 292 292 292 292 293 293 293 292 291
293 292 290 288 288 287 297 300 295 302 304 303 304 306 305 307 305 303 304 306 305 303 299 297 295 293 292 292 292 290 290 292 291 291 291 291 292 292 292 292 292 292 291 289
292 297 297 294 296 299 301 303 305 304 303 304 305 306 306 305 305 303 302 301 299 296 295 293 291 290 291 291 291 289 290 291 291 291 291 291 292 291 291 291 291 291 290 289
297 298 297 294 299 299 301 303 303 304 304 305 306 306 306 305 306 304 301 297 294 294 290 291 288 291 290 290 289 291 291 291 290 289 290 291 289 288 288 289 289 290 289 288
299 298 297 296 300 301 302 303 304 304 306 306 307 307 307 306 305 303 298 295 292 287 290 290 289 289 288 289 290 291 290 290 289 289 289 289 289 288 287 287 287 289 290 288
299 298 297 297 302 301 302 304 305 304 305 306 306 306 303 304 303 300 293 290 291 291 289 287 288 288 289 288 289 289 289 288 288 288 289 290 289 288 288 287 287 286 285 284
Wind_Speed
6 6 6 11 8 4 6 5 11 8 5 5 4 7 4 5 7 10 11 11 11 10 8 7 7 8 10 11 13 13 13 13 9 9 8 8 6 5 4 5 6 5 5 6
5 4 4 5 5 4 5 9 8 5 3 5 9 7 5 4 5 6 10 11 11 9 10 10 10 10 10 12 11 12 11 11 9 7 5 3 5 4 5 5 5 5 5 5
8 6 2 4 6 6 4 4 10 6 7 3 9 8 8 4 5 6 6 5 8 9 10 11 12 11 11 11 11 12 12 12 7 6 5 5 6 5 4 3 3 4 5 6
3 3 4 6 5 4 6 1 9 13 13 8 7 7 10 7 7 7 8 9 9 11 12 13 12 12 13 12 11 12 11 9 7 3 6 6 5 4 4 3 4 3 4 6
4 5 5 5 3 1 4 7 9 7 4 6 10 9 11 8 10 12 12 12 13 14 14 13 13 13 12 11 11 9 10 10 8 8 8 6 7 6 4 3 5 5 5 7
4 2 2 4 5 2 11 10 6 3 3 6 3 8 6 9 15 15 15 14 14 14 14 13 13 11 11 9 9 8 11 11 10 11 11 10 9 6 5 6 6 6 8 8
6 4 5 3 9 6 6 9 4 5 6 8 2 7 11 2 4 17 19 17 16 15 14 14 14 12 12 10 10 11 12 12 10 10 10 9 8 7 6 7 7 10 9 9
10 8 4 2 3 3 7 6 4 5 5 3 3 7 0 1 4 11 17 18 18 17 15 14 14 12 12 12 11 11 11 11 10 9 9 8 8 5 5 6 7 7 8 9
5 4 4 3 2 3 6 7 3 3 1 3 6 5 10 4 8 13 19 19 19 18 16 14 12 11 13 13 12 11 11 11 10 8 7 5 5 6 5 6 7 7 10 9
4 4 2 4 2 7 4 8 4 3 4 5 3 7 4 7 11 15 20 20 19 18 16 13 12 12 12 13 11 10 11 11 9 7 5 3 4 4 5 6 8 10 10 11
4 4 5 3 7 6 5 5 1 1 3 3 4 1 4 1 8 16 19 20 19 17 16 14 12 13 13 13 12 11 10 9 7 9 6 5 3 2 4 6 8 9 11 11
3 1 5 6 4 2 3 4 7 4 5 0 3 4 3 1 3 10 16 17 17 16 16 15 14 14 14 13 12 11 9 9 7 6 6 4 2 2 5 6 8 9 11 11
6 4 4 5 5 5 8 8 4 5 1 6 3 2 3 2 5 8 13 14 14 15 16 15 15 15 14 13 12 11 7 3 6 7 6 4 3 5 6 7 9 9 11 11
3 4 6 7 1 1 7 11 11 10 4 4 9 8 8 7 7 8 11 14 16 16 17 16 16 15 14 13 12 9 5 8 7 7 6 5 6 6 7 8 9 10 11 12
3 5 4 1 1 3 4 8 13 16 13 8 7 11 7 6 8 9 8 11 14 16 18 18 17 15 15 14 13 6 9 7 8 7 7 6 6 7 8 9 9 10 11 11
2 3 1 3 2 2 7 11 12 16 16 15 18 19 13 9 6 8 11 14 16 17 18 18 17 16 16 15 11 10 8 9 7 7 7 7 7 8 9 10 9 10 11 11
3 6 4 2 2 2 6 15 17 13 11 13 13 15 3 6 9 10 11 14 15 17 18 18 17 15 13 13 11 9 9 7 7 6 6 7 7 8 10 10 10 11 11 10
6 5 1 1 2 4 1 1 2 13 16 16 17 11 7 4 2 5 8 13 15 16 17 16 13 11 12 8 7 6 6 6 6 5 5 6 8 9 10 10 10 11 9 8
1 4 3 3 5 7 11 4 4 5 6 4 13 12 5 3 4 9 10 12 14 15 14 13 11 10 8 9 7 7 7 6 5 5 6 6 7 9 10 10 11 10 8 8
5 3 2 3 3 4 3 4 1 2 6 6 4 4 7 7 5 3 9 12 12 13 13 11 12 12 10 9 8 9 7 5 4 4 6 7 8 9 10 11 11 8 8 8
2 0 4 4 4 6 1 1 3 4 4 5 4 5 9 8 7 4 2 10 12 12 13 12 12 11 10 8 6 5 4 4 2 5 6 7 8 8 10 10 7 7 7 6
5 6 4 3 3 5 5 6 3 5 3 5 6 6 9 10 3 3 2 7 12 12 12 12 10 10 10 9 6 5 5 1 5 6 7 8 7 7 7 8 7 8 7 6
4 4 1 7 1 3 7 6 3 4 8 8 8 6 9 10 10 7 6 7 10 12 11 11 11 8 5 6 4 3 2 4 5 7 8 8 7 7 7 8 9 8 6 6
5 4 3 2 2 7 8 9 11 10 12 11 11 12 11 13 11 9 7 9 10 10 10 10 8 5 7 4 4 2 4 5 6 8 7 6 6 6 7 8 8 8 6 5
2 7 5 5 11 7 7 5 6 7 8 10 10 8 9 9 8 5 8 9 10 11 8 7 3 3 3 2 2 2 5 6 7 7 7 7 6 6 7 7 7 9 7 4
6 3 4 5 9 6 8 8 11 11 11 10 9 7 6 5 0 7 9 10 9 8 8 2 3 3 1 1 3 5 5 5 6 7 7 5 6 6 6 7 7 10 10 5
Wind_Direction
202 216 205 178 204 358 116 156 136 116 108 146 159 137 113 138 175 183 186 183 184 187 151 143 145 143 143 148 153 160 153 164 171 177 161 160 161 145 118 89 70 71 66 63
179 152 81 111 137 151 138 152 131 114 122 244 176 139 126 148 165 206 193 193 189 166 162 147 150 151 151 148 151 155 159 164 174 160 138 129 133 96 89 91 84 69 61 40
243 88 103 116 125 143 109 197 162 167 162 187 185 181 174 141 164 167 197 191 187 178 153 152 150 140 134 142 158 157 151 151 125 113 131 122 118 131 148 105 82 68 36 9
76 85 139 124 112 283 163 234 147 149 184 203 211 226 179 170 164 176 161 168 155 151 145 136 139 143 139 136 130 130 126 118 102 114 97 66 51 77 60 68 61 10 351 340
109 144 144 132 65 229 73 176 140 159 202 216 189 253 109 174 192 178 163 152 146 142 145 145 139 134 129 127 129 126 123 110 101 100 100 105 93 93 84 55 348 329 318 312
93 74 16 82 78 158 142 143 124 165 231 242 245 263 196 184 215 179 170 166 157 155 151 146 138 137 135 131 126 130 116 110 109 100 94 90 86 66 29 11 339 338 324 320
159 110 116 180 119 151 230 186 191 220 215 252 71 253 264 301 206 186 176 170 167 162 159 154 158 160 152 144 138 128 123 115 104 93 88 86 80 59 31 358 350 335 328 324
195 171 178 116 290 205 200 248 230 241 224 255 183 243 301 91 181 193 177 171 168 171 168 168 167 159 154 148 144 136 126 117 109 101 94 82 64 58 30 5 352 335 328 324
184 122 125 45 160 270 147 219 34 142 74 269 255 229 238 185 198 194 182 174 178 181 174 172 162 160 152 149 143 137 125 113 100 96 80 85 82 56 29 6 348 343 326 324
148 149 168 129 185 75 289 128 184 217 234 241 192 268 268 179 187 190 187 187 188 186 179 171 165 154 152 142 133 131 123 119 116 119 153 128 99 64 26 358 348 333 330 326
169 263 145 197 215 201 154 187 79 42 303 288 298 274 60 320 191 195 198 196 193 190 183 175 163 159 152 149 144 142 134 141 172 179 161 160 113 57 359 345 336 331 326 325
126 174 182 198 118 309 285 221 200 240 176 98 324 289 141 188 236 210 206 201 200 193 187 176 170 165 162 161 160 154 163 183 184 163 183 161 193 336 324 325 328 328 320 317
171 204 175 167 171 188 226 193 188 113 141 203 189 257 167 212 225 213 221 200 201 194 184 177 174 173 171 171 169 170 189 159 199 197 204 210 259 283 307 315 323 318 319 315
206 197 249 240 46 289 195 197 199 206 205 200 236 262 201 220 226 214 213 202 197 194 182 181 181 180 178 176 176 187 187 210 202 214 233 256 272 285 299 307 309 320 318 309
237 238 216 223 100 223 258 225 205 215 230 222 266 251 270 249 238 234 209 198 197 194 187 189 188 183 182 182 187 213 220 200 207 222 248 277 276 275 289 293 305 320 314 302
125 192 212 229 212 271 264 246 235 231 245 253 263 270 279 257 258 220 201 198 202 199 197 192 194 190 189 188 193 213 210 200 205 230 257 284 276 277 291 296 300 305 310 308
143 146 165 241 346 280 278 240 228 226 229 242 249 259 211 194 227 228 214 209 209 204 199 197 197 196 193 192 204 209 198 189 207 240 272 279 277 281 290 291 292 308 313 309
134 125 97 128 217 231 19 155 276 245 253 243 257 261 261 282 269 268 231 213 213 208 204 202 199 192 193 194 195 201 188 195 214 251 276 287 287 288 290 290 294 303 305 296
17 147 125 181 220 321 280 186 209 207 289 291 257 271 238 237 255 236 221 221 218 210 206 201 194 179 162 177 165 171 187 199 220 268 292 296 296 292 295 294 297 297 295 289
67 65 264 152 223 247 44 66 208 224 272 22 298 275 197 195 243 290 186 204 209 205 196 184 168 160 161 149 143 189 186 207 261 278 291 292 289 292 295 297 294 289 282 283
126 69 216 181 242 281 289 222 177 244 24 360 296 209 189 210 250 15 228 191 197 190 184 162 165 158 141 138 163 187 203 249 261 273 287 293 295 300 299 296 286 279 282 284
185 168 184 135 210 268 159 149 231 13 342 318 304 244 227 254 321 279 242 198 186 174 162 161 146 138 126 132 191 211 251 194 278 292 295 295 297 299 299 287 283 275 267 272
228 235 239 220 259 110 199 287 326 309 295 294 294 286 256 263 253 240 210 176 171 166 150 143 128 114 122 171 162 246 307 282 300 299 296 291 293 294 305 290 286 278 261 260
213 184 235 249 184 247 253 264 274 273 274 291 284 280 277 268 271 235 191 163 159 148 136 115 86 128 189 178 112 289 275 279 286 280 280 291 297 314 308 309 287 270 260 248
26 168 204 251 279 277 260 270 300 310 305 297 296 290 302 297 283 222 185 156 127 101 105 74 139 186 169 161 226 255 291 297 282 281 281 292 298 304 301 286 265 268 255 248
189 200 209 275 356 322 317 352 332 313 329 337 327 324 6 322 317 133 115 108 101 92 88 137 236 222 233 313 308 315 305 286 276 278 281 297 306 303 296 288 281 217 248 227